Regional Weather Roundup
Issued by NWS San Angelo, TX

Home | Current Version | Previous Version | Text Only | Print | Product List | Glossary On
Versions: 1 2 3 4 5 6 7 8 9 10 11 12 13 14 15 16 17 18 19 20 21 22 23 24 25 26 27 28 29 30 31 32 33 34 35 36 37 38 39 40 41 42 43 44 45 46 47 48 49 50
000
ASUS44 KSJT 310910
RWRSJT
WEST CENTRAL TEXAS REGIONAL WEATHER ROUNDUP
NATIONAL WEATHER SERVICE SAN ANGELO TX
400 AM CDT THU JUL 31 2014

NOTE: "FAIR" INDICATES FEW OR NO CLOUDS BELOW 12,000 FEET WITH NO
SIGNIFICANT WEATHER AND/OR OBSTRUCTIONS TO VISIBILITY.

TXZ049-054-064>066-071>073-076>078-098-099-113-114-127-128-139-140-
154-155-168>170-311000
...LOCATIONS ACROSS WEST CENTRAL TEXAS...

CITY           SKY/WX    TMP DP  RH WIND       PRES   REMARKS
SAN ANGELO     CLOUDY    79  68  69 NE12      30.01R
ABILENE        CLOUDY    71  66  84 N12       30.04S
DYESS AFB      CLOUDY    70  65  84 N13       30.04S
JUNCTION       PTCLDY    79  68  69 S5        29.97F
SWEETWATER     CLOUDY    70  66  87 N10       30.11R
BROWNWOOD      NOT AVBL
COLEMAN        CLOUDY    76  66  73 NE15      29.99S
SONORA         MOCLDY    81  59  47 CALM      30.05R
OZONA          FAIR      77  54  44 N8        30.04R
BRADY          CLEAR     79  63  57 NW5       29.99R
$$

TEXAS PANHANDLE/OKLAHOMA PANHANDLE

CITY           SKY/WX    TMP DP  RH WIND       PRES   REMARKS
AMARILLO       CLOUDY    60  58  92 N12       30.22S
BORGER         CLEAR     61  58  90 N3        30.22R
CANADIAN       CLOUDY    64  61  92 N8        30.17R
DALHART        MOCLDY    61  57  87 N7        30.27S
DUMAS            N/A     56  56  98 N8        30.24F FOG
GUYMON         NOT AVBL
HEREFORD       CLOUDY    64  61  90 N12       30.23F
PAMPA          CLOUDY    60  57  92 N9        30.21S
PERRYTON       CLEAR     58  56  95 N7        30.20R
$$

SOUTHERN PANHANDLE/SOUTH PLAINS/ROLLING PLAINS

CITY           SKY/WX    TMP DP  RH WIND       PRES   REMARKS
LUBBOCK        CLOUDY    66  58  75 N16G22    30.17R
SNYDER         CLOUDY    70  64  81 N12G22    30.09R
CHILDRESS      CLOUDY    68  62  81 N12       30.12S
SEMINOLE       CLOUDY    69  60  74 NE14G20   30.15S
$$

PERMIAN BASIN

CITY           SKY/WX    TMP DP  RH WIND       PRES   REMARKS
MIDLAND        CLOUDY    72  65  78 NE15      30.09R
ODESSA           N/A     72  64  76 NE16G23   30.10S
WINK           MOCLDY    74  63  68 NE15      30.08R
$$

FAR WEST/SOUTHWEST MOUNTAINS/TRANS PECOS

CITY           SKY/WX    TMP DP  RH WIND       PRES   REMARKS
ALPINE         CLOUDY    71  59  66 SW3       30.19S
DRYDEN           N/A     87  52  29 E10       29.95S
EL PASO        CLOUDY    76  63  64 N13       30.13F
FORT STOCKTON  CLOUDY    77  60  55 NW5       30.06S
GUADALUPE PASS CLOUDY    65  60  84 NE28      30.26R
MARFA          MOCLDY    68  57  68 NW9       30.19F
PECOS          PTSUNNY   74  63  68 N12       30.07R
$$

DALLAS/FORT WORTH METROPLEX

CITY           SKY/WX    TMP DP  RH WIND       PRES   REMARKS
DFW AIRPORT    CLOUDY    76  70  82 NE7       29.95R
FTW MEACHAM    PTCLDY    76  69  79 NE9       29.94R
DAL-EXECUTIVE  CLOUDY    77  70  79 E7        29.96R
GRAND PRAIRIE  PTCLDY    78  69  73 E3        29.95R
ADDISON        CLOUDY    73  73 100 E7        29.97R
MESQUITE       CLOUDY    72  70  95 CALM      29.96R
LANCASTER      CLOUDY    74  69  82 E5        29.96S
$$

NORTH CENTRAL TEXAS

CITY           SKY/WX    TMP DP  RH WIND       PRES   REMARKS
SHRMAN/DENISON CLOUDY    71  68  91 SE9       29.97R
GAINESVILLE    CLOUDY    71  71  99 SE6       29.97R
BRIDGEPORT     PTSUNNY   73  69  88 CALM      29.97S
DENTON         MOCLDY    73  70  88 CALM      29.94F
WAXAHACHIE     CLOUDY    78  70  76 CALM      29.96R
GRANBURY       MOSUNNY   80  69  70 CALM      29.95R
$$

WESTERN NORTH TEXAS

CITY           SKY/WX    TMP DP  RH WIND       PRES   REMARKS
WICHITA FALLS  CLOUDY    70  67  90 N15       29.98F
VERNON         CLOUDY    71  64  80 N13       30.05S
BRECKENRIDGE   CLOUDY    74  66  76 N9        29.98F
COMANCHE       CLOUDY    77  59  54 S8        29.96F
$$

CENTRAL AND SOUTH CENTRAL TEXAS

CITY           SKY/WX    TMP DP  RH WIND       PRES   REMARKS
AUSTIN/BERGSTM CLOUDY    78  72  81 S9        29.95F
WACO           MOCLDY    79  67  66 S18G24    29.93R
HILLSBORO      MOSUNNY   79  66  64 SE8       29.94R
TEMPLE         CLOUDY    77  64  65 S18       29.94S
KILLEEN-GRAY   MOCLDY    79  68  69 S14G22    29.94F
FORT HOOD      CLOUDY    80  66  62 S12G18    29.94F
GEORGETOWN     CLOUDY    79  70  73 S12G21    29.95F
LAGO VISTA     CLOUDY    78  70  77 S12G17    29.98F
SAN MARCOS     CLOUDY    79  70  73 S10       29.98F
NEW BRAUNFELS  CLOUDY    79  73  82 S12       29.95F
RANDOLPH AFB   CLOUDY    79  72  79 S10       29.96F
SAN ANTONIO    CLOUDY    80  73  79 S14       29.96F
STINSON        CLOUDY    79  73  82 SE6       29.94F
PLEASANTON     NOT AVBL
LA GRANGE      MOCLDY    77  75  94 S7        29.93F
GIDDINGS       PTSUNNY   76  73  88 S7        29.99F
$$

EAST TEXAS

CITY           SKY/WX    TMP DP  RH WIND       PRES   REMARKS
PARIS          CLOUDY    68  63  83 W9        30.04R
CLARKSVILLE    CLOUDY    70  68  93 E8        29.98S
TYLER          LGT RAIN  73  68  84 SE8       29.98F
LONGVIEW       CLOUDY    73  65  75 SE6       29.99S
PALESTINE      NOT AVBL
NACOGDOCHES    CLOUDY    73  64  73 SE7       29.99F
$$

TEXAS HILL COUNTRY AND EDWARDS PLATEAU

CITY           SKY/WX    TMP DP  RH WIND       PRES   REMARKS
LLANO          MOSUNNY   79  66  65 S5        29.99S
HORSESHOE BAY  PTSUNNY   78  68  73 S5        29.96S
KERRVILLE      CLOUDY    76  72  85 S8        30.01S
FREDERICKSBRG  CLOUDY    76  68  77 S7        30.00S
ROCKSPRINGS    MOSUNNY   75  70  83 SE10G16   30.03S
HONDO          MOCLDY    78  72  81 E7        29.98S
UVALDE         CLOUDY    79  73  82 E5        29.96R
DEL RIO        PTCLDY    83  71  67 SE12      29.92S
$$

SOUTHEAST TEXAS

CITY           SKY/WX    TMP DP  RH WIND       PRES   REMARKS
COLLEGE STN    PTCLDY    78  72  81 S7        29.95F
CALDWELL       MOSUNNY   75  73  94 S8        29.98S
CROCKETT       MOSUNNY   77  75  94 SE6       29.98F
BRENHAM        MOCLDY    77  72  84 S9        29.94F
HUNTSVILLE     CLEAR     78  73  84 S6        29.95F
CONROE         PTCLDY    74  73  97 CALM      29.97F
HOUSTON BUSH   PTCLDY    79  74  84 S3        29.94F
HOUSTON HOBBY  MOCLDY    79  74  84 S3        29.95F
PERLAND        CLEAR     80  75  84 S3        29.96F
WHARTON        SUNNY     70  69  97 CALM      29.97F
$$

THE UPPER TEXAS COAST

CITY           SKY/WX    TMP DP  RH WIND       PRES   REMARKS
ORANGE         CLOUDY    76  70  82 N3        30.00R
PORT ARTHUR    CLOUDY    78  72  81 S6        29.96F
GALVESTON      PTCLDY    83  75  77 SE13      29.96F
ANGLETON       CLEAR     75  73  93 CALM      29.96F
BAY CITY       MOSUNNY   75  75 100 CALM      29.96F
$$

TEXAS COASTAL BEND, RIO GRANDE PLAINS DEEP SOUTH TEXAS

CITY           SKY/WX    TMP DP  RH WIND       PRES   REMARKS
VICTORIA       MOCLDY    77  74  90 E5        29.96S
BEEVILLE       CLOUDY    80  76  87 S8        29.94F
ROCKPORT       CLEAR     82  77  84 S7        29.94S
PORT ARANSAS   SUNNY     79  77  92 S8        29.93F
PORT LAVACA    MOSUNNY   77  74  91 SE3       29.95S
CORPUS CHRISTI PTCLDY    80  76  87 S14       29.93F
KINGSVILLE NAS MOCLDY    82  78  88 SE8       29.93S
COTULLA        CLEAR     80  73  79 SE9       29.92F
LAREDO         CLEAR     83  73  71 SE12      29.92S
BROWNSVILLE    PTCLDY    80  77  90 S8        29.94S
PORT ISABEL    PTCLDY    83  77  82 S9        29.93F
HEBBRONVILLE   SUNNY     80  74  82 SE13      29.93S
MCALLEN        CLEAR     81  76  84 SE13      29.92F
WESLACO        PTCLDY    81  74  80 S10       29.92S
FALFURRIAS     PTSUNNY   73  73 100 SE8       29.92F
EDINBURG       MOSUNNY   83  75  78 SE9       29.92F
$$



USA.gov is the U.S. government's official web portal to all federal, state and local government web resources and services.